Location: Poughquag
(41.6090°N, 73.6820°W)
Time: 10:09:29
(UTC-05:00)

N. Korean satellite - Pass Details

Date: 21 January 2020
Orbit: 456 x 505 km, 97.2° (Epoch: 24 February)

Event Time Altitude Azimuth Distance (km) Brightness Sun altitude
Rises 17:44:41 0° 201° (SSW) 2,467 10.8 -9.2°
Reaches altitude 10° 17:47:11 10° 221° (SW) 1,595 10.2 -9.7°
Maximum altitude 17:49:36 18° 266° (W) 1,186 9.7 -10.1°
Drops below altitude 10° 17:52:02 10° 311° (NW) 1,602 9.6 -10.5°
Sets 17:54:34 0° 331° (NNW) 2,483 10.3 -11.0°
